WA3NOA-2 Weather Reports


time (UTC)temp
C
wind
direction
speed
KPH
gust
KPH
rain 1hr
cm
rain 24hr
cm
rain mn
cm
humidity
%
barometer
mb
20260505153308 26 268 9.7 16.1 0.00 0.00 0.00 44 1004.6
20260505153206 26 223 11.3 16.1 0.00 0.00 0.00 46 1004.5
20260505152706 26 87 3.2 12.9 0.00 0.00 0.00 45 1004.6
20260505152206 26 265 1.6 16.1 0.00 0.00 0.00 44 1004.7
20260505151808 26 227 4.8 11.3 0.00 0.00 0.00 46 1004.7
20260505151706 26 0 0.0 11.3 0.00 0.00 0.00 45 1004.7
20260505151206 25 243 4.8 11.3 0.00 0.00 0.00 45 1004.8
20260505150706 25 290 3.2 12.9 0.00 0.00 0.00 45 1004.8
20260505150308 25 241 14.5 14.5 0.00 0.00 0.00 47 1004.8
20260505150206 25 261 3.2 4.8 0.00 0.00 0.00 47 1004.8
20260505140308 23 244 3.2 14.5 0.00 0.00 0.00 50 1004.8
20260505140206 23 243 1.6 14.5 0.00 0.00 0.00 49 1004.8
20260505130308 20 264 4.8 12.9 0.00 0.00 0.00 58 1005.5
20260505130206 20 259 6.4 12.9 0.00 0.00 0.00 57 1005.6
20260505124808 19 0 0.0 14.5 0.00 0.00 0.00 61 1005.5
20260505124706 18 0 0.0 14.5 0.00 0.00 0.00 60 1005.6
20260505124206 18 263 4.8 6.4 0.00 0.00 0.00 61 1005.5
20260505123706 18 267 4.8 16.1 0.00 0.00 0.00 61 1005.4
20260505123307 18 255 4.8 17.7 0.00 0.00 0.00 62 1005.4
20260505123206 18 260 6.4 17.7 0.00 0.00 0.00 64 1005.5
20260505122706 18 246 8.0 11.3 0.00 0.00 0.00 63 1005.3
20260505122206 17 294 3.2 9.7 0.00 0.00 0.00 65 1005.4
20260505121807 17 282 3.2 16.1 0.00 0.00 0.00 64 1005.2
20260505121706 17 269 6.4 16.1 0.00 0.00 0.00 64 1005.2
20260505121206 17 264 4.8 14.5 0.00 0.00 0.00 65 1005.4
20260505120707 17 247 6.4 11.3 0.00 0.00 0.00 66 1005.4
20260505120308 17 243 4.8 12.9 0.00 0.00 0.00 67 1005.3
20260505120206 17 250 4.8 12.9 0.00 0.00 0.00 66 1005.2
20260505115706 17 265 4.8 14.5 0.00 0.00 0.00 66 1005.2
20260505115206 17 263 6.4 16.1 0.00 0.00 0.00 66 1005.0
20260505114807 16 232 3.2 12.9 0.00 0.00 0.00 67 1005.0
20260505114706 16 217 8.0 12.9 0.00 0.00 0.00 67 1005.1
20260505114206 16 238 8.0 14.5 0.00 0.00 0.00 68 1005.1
20260505113706 16 219 12.9 12.9 0.00 0.00 0.00 68 1005.0
20260505113307 16 244 6.4 11.3 0.00 0.00 0.00 69 1005.1
20260505113206 16 263 9.7 9.7 0.00 0.00 0.00 69 1005.0
20260505112706 16 267 1.6 9.7 0.00 0.00 0.00 70 1005.1
20260505112206 15 249 3.2 8.0 0.00 0.00 0.00 71 1005.0
20260505111807 15 260 3.2 11.3 0.00 0.00 0.00 71 1005.0
20260505111706 15 244 4.8 11.3 0.00 0.00 0.00 71 1004.9
20260505111206 15 233 3.2 8.0 0.00 0.00 0.00 72 1005.0
20260505110706 15 268 6.4 6.4 0.00 0.00 0.00 73 1004.7
20260505110307 15 242 4.8 9.7 0.00 0.00 0.00 74 1004.7
20260505110206 14 246 4.8 9.7 0.00 0.00 0.00 74 1004.7
20260505102207 13 273 6.4 6.4 0.00 0.00 0.00 77 1004.4
20260505101807 13 252 6.4 8.0 0.00 0.00 0.00 77 1004.3
20260505101706 13 253 3.2 8.0 0.00 0.00 0.00 77 1004.4
20260505101206 13 247 3.2 9.7 0.00 0.00 0.00 77 1004.3
20260505100706 13 263 4.8 6.4 0.00 0.00 0.00 76 1004.3
20260505100307 13 252 4.8 6.4 0.00 0.00 0.00 77 1004.2
20260505100206 13 253 3.2 6.4 0.00 0.00 0.00 77 1004.2
20260505095706 13 236 3.2 8.0 0.00 0.00 0.00 77 1004.3
20260505095206 13 252 3.2 8.0 0.00 0.00 0.00 77 1004.1
20260505094808 13 245 1.6 8.0 0.00 0.00 0.00 77 1004.1
20260505094706 13 235 3.2 8.0 0.00 0.00 0.00 77 1004.1
20260505094206 13 248 4.8 8.0 0.00 0.00 0.00 76 1004.0
20260505093706 13 255 6.4 6.4 0.00 0.00 0.00 76 1004.1
20260505093308 13 247 4.8 8.0 0.00 0.00 0.00 76 1004.1
20260505093206 13 247 4.8 8.0 0.00 0.00 0.00 76 1004.1
20260505092706 13 246 6.4 8.0 0.00 0.00 0.00 76 1004.0
20260505092206 13 241 1.6 6.4 0.00 0.00 0.00 76 1004.0
20260505091807 13 243 1.6 8.0 0.00 0.00 0.00 76 1004.0
20260505091706 13 257 6.4 6.4 0.00 0.00 0.00 76 1003.9
20260505091206 13 261 3.2 4.8 0.00 0.00 0.00 76 1004.0
20260505090706 13 252 4.8 8.0 0.00 0.00 0.00 76 1003.9
20260505090308 13 256 4.8 9.7 0.00 0.00 0.00 76 1004.1
20260505090206 13 246 3.2 9.7 0.00 0.00 0.00 76 1004.1
20260505085706 13 259 3.2 4.8 0.00 0.00 0.00 76 1004.0
20260505085206 13 254 3.2 4.8 0.00 0.00 0.00 76 1004.0
20260505084807 13 253 4.8 8.0 0.00 0.00 0.00 76 1004.2
20260505084706 13 255 4.8 8.0 0.00 0.00 0.00 75 1004.0
20260505084206 13 250 6.4 6.4 0.00 0.00 0.00 75 1004.0
20260505083706 13 256 1.6 6.4 0.00 0.00 0.00 75 1004.0
20260505083308 13 246 4.8 8.0 0.00 0.00 0.00 75 1003.9
20260505083206 13 246 1.6 8.0 0.00 0.00 0.00 75 1004.0
20260505082706 13 250 8.0 9.7 0.00 0.00 0.00 75 1004.1
20260505082206 13 248 1.6 6.4 0.00 0.00 0.00 75 1004.1
20260505081807 13 248 3.2 6.4 0.00 0.00 0.00 75 1004.0
20260505081706 13 248 3.2 6.4 0.00 0.00 0.00 75 1004.0
20260505081206 13 242 3.2 4.8 0.00 0.00 0.00 74 1004.0
20260505080706 13 228 3.2 4.8 0.00 0.00 0.00 74 1004.1
20260505080307 13 246 3.2 6.4 0.00 0.00 0.00 74 1004.0
20260505080206 14 256 3.2 6.4 0.00 0.00 0.00 73 1004.0
20260505075706 14 0 0.0 6.4 0.00 0.00 0.00 73 1004.0
20260505075206 14 0 0.0 8.0 0.00 0.00 0.00 73 1003.9
20260505074807 14 240 4.8 6.4 0.00 0.00 0.00 72 1003.9
20260505074706 14 254 3.2 6.4 0.00 0.00 0.00 72 1004.0
20260505074206 14 271 1.6 4.8 0.00 0.00 0.00 72 1004.0
20260505073706 14 0 0.0 4.8 0.00 0.00 0.00 72 1003.9
20260505073307 14 250 3.2 8.0 0.00 0.00 0.00 72 1003.9
20260505073206 14 247 3.2 6.4 0.00 0.00 0.00 72 1003.9
20260505072706 14 240 3.2 8.0 0.00 0.00 0.00 72 1003.9
20260505072206 14 252 1.6 6.4 0.00 0.00 0.00 71 1003.9
20260505071807 14 249 4.8 6.4 0.00 0.00 0.00 70 1004.0
20260505071706 14 267 1.6 6.4 0.00 0.00 0.00 70 1004.0
20260505071206 14 0 0.0 6.4 0.00 0.00 0.00 70 1004.0
20260505070706 14 240 3.2 6.4 0.00 0.00 0.00 70 1004.1
20260505070307 14 252 3.2 6.4 0.00 0.00 0.00 69 1004.1
20260505070206 14 252 1.6 6.4 0.00 0.00 0.00 70 1004.0
20260505065706 14 236 4.8 4.8 0.00 0.00 0.00 69 1004.0
20260505065207 14 252 3.2 11.3 0.00 0.00 0.00 69 1004.1
20260505064808 14 250 3.2 11.3 0.00 0.00 0.00 69 1004.1
20260505064707 14 265 1.6 11.3 0.00 0.00 0.00 69 1004.0
20260505064207 14 259 4.8 6.4 0.00 0.00 0.00 68 1004.1
20260505063707 14 247 4.8 6.4 0.00 0.00 0.00 68 1004.1
20260505063309 14 241 1.6 6.4 0.00 0.00 0.00 68 1004.1
20260505063207 14 248 6.4 6.4 0.00 0.00 0.00 68 1004.1
20260505062707 14 248 3.2 6.4 0.00 0.00 0.00 68 1004.1
20260505062207 14 250 3.2 6.4 0.00 0.00 0.00 68 1004.2
20260505061808 14 254 3.2 4.8 0.00 0.00 0.00 68 1004.1
20260505061707 14 254 1.6 4.8 0.00 0.00 0.00 67 1004.3
20260505061207 14 254 3.2 4.8 0.00 0.00 0.00 67 1004.3
20260505060707 14 236 3.2 6.4 0.00 0.00 0.00 67 1004.2
20260505060308 14 236 1.6 8.0 0.00 0.00 0.00 67 1004.1
20260505060207 14 236 3.2 8.0 0.00 0.00 0.00 67 1004.1
20260505055707 14 261 1.6 4.8 0.00 0.00 0.00 67 1004.1
20260505055207 14 262 3.2 6.4 0.00 0.00 0.00 66 1004.3
20260505054809 14 0 0.0 4.8 0.00 0.00 0.00 66 1004.2
20260505054707 14 262 1.6 4.8 0.00 0.00 0.00 66 1004.2
20260505054207 14 241 1.6 3.2 0.00 0.00 0.00 65 1004.1
20260505053707 14 0 0.0 1.6 0.00 0.00 0.00 65 1004.2
20260505053308 14 236 4.8 4.8 0.00 0.00 0.00 64 1004.3
20260505053207 15 236 1.6 4.8 0.00 0.00 0.00 64 1004.3
20260505052707 15 0 0.0 4.8 0.00 0.00 0.00 64 1004.3
20260505052207 15 0 0.0 3.2 0.00 0.00 0.00 64 1004.3
20260505051808 15 259 1.6 6.4 0.00 0.00 0.00 63 1004.3
20260505051707 15 259 1.6 6.4 0.00 0.00 0.00 63 1004.2
20260505051207 15 261 1.6 6.4 0.00 0.00 0.00 63 1004.2
20260505050707 15 0 0.0 6.4 0.00 0.00 0.00 63 1004.1
20260505050308 15 246 3.2 11.3 0.00 0.00 0.00 62 1004.1
20260505050207 15 261 4.8 9.7 0.00 0.00 0.00 62 1004.1
20260505041707 16 260 3.2 6.4 0.00 0.00 0.00 58 1004.0
20260505041206 16 261 4.8 6.4 0.00 0.00 0.00 57 1004.0
20260505040707 16 246 8.0 12.9 0.00 0.00 0.00 57 1003.8
20260505040308 16 267 3.2 11.3 0.00 0.00 0.00 57 1003.8
20260505040207 16 234 3.2 11.3 0.00 0.00 0.00 57 1003.9
20260505035706 16 264 6.4 12.9 0.00 0.00 0.00 57 1003.8
20260505035206 16 231 1.6 14.5 0.00 0.00 0.00 56 1003.8
20260505034808 16 261 1.6 9.7 0.00 0.00 0.00 56 1003.8
20260505034706 16 270 1.6 9.7 0.00 0.00 0.00 56 1003.8
20260505034206 16 0 0.0 12.9 0.00 0.00 0.00 55 1003.8
20260505033706 16 257 1.6 11.3 0.00 0.00 0.00 55 1003.9
20260505033308 16 0 0.0 6.4 0.00 0.00 0.00 55 1003.9
20260505033206 16 257 1.6 6.4 0.00 0.00 0.00 54 1003.9
20260505032706 16 269 4.8 9.7 0.00 0.00 0.00 54 1003.9
20260505032206 16 0 0.0 4.8 0.00 0.00 0.00 54 1004.0
20260505031808 16 274 1.6 11.3 0.00 0.00 0.00 54 1004.0
20260505031706 16 274 1.6 11.3 0.00 0.00 0.00 54 1004.0
20260505031206 16 199 6.4 11.3 0.00 0.00 0.00 53 1004.0
20260505030706 16 262 3.2 14.5 0.00 0.00 0.00 53 1003.9
20260505030308 16 222 6.4 14.5 0.00 0.00 0.00 53 1004.0
20260505030206 16 257 14.5 14.5 0.00 0.00 0.00 53 1004.0
20260505025706 16 249 1.6 8.0 0.00 0.00 0.00 53 1003.9
20260505025206 16 263 4.8 11.3 0.00 0.00 0.00 53 1003.9
20260505024808 16 269 3.2 11.3 0.00 0.00 0.00 52 1003.9
20260505024706 16 263 3.2 8.0 0.00 0.00 0.00 52 1004.0
20260505024206 16 306 3.2 4.8 0.00 0.00 0.00 53 1003.9
20260505023706 16 0 0.0 11.3 0.00 0.00 0.00 52 1003.8
20260505023308 16 0 0.0 4.8 0.00 0.00 0.00 52 1003.9
20260505023206 16 0 0.0 4.8 0.00 0.00 0.00 52 1003.9
20260505022706 17 256 6.4 12.9 0.00 0.00 0.00 51 1004.0
20260505022206 17 250 4.8 11.3 0.00 0.00 0.00 51 1004.1
20260505021808 17 240 1.6 8.0 0.00 0.00 0.00 51 1004.2
20260505021706 17 0 0.0 8.0 0.00 0.00 0.00 51 1004.2
20260505021206 17 270 3.2 9.7 0.00 0.00 0.00 51 1004.2
20260505020706 17 274 4.8 9.7 0.00 0.00 0.00 50 1004.2
20260505020308 17 0 0.0 9.7 0.00 0.00 0.00 50 1004.1
20260505020206 17 264 9.7 9.7 0.00 0.00 0.00 50 1004.2
20260505015706 17 247 4.8 6.4 0.00 0.00 0.00 50 1004.2
20260505015206 17 259 1.6 4.8 0.00 0.00 0.00 50 1004.1
20260505014808 17 260 4.8 6.4 0.00 0.00 0.00 50 1004.3
20260505014706 17 0 0.0 4.8 0.00 0.00 0.00 49 1004.2
20260505014206 17 0 0.0 6.4 0.00 0.00 0.00 49 1004.2
20260505013706 17 255 1.6 4.8 0.00 0.00 0.00 49 1004.0
20260505013308 17 245 3.2 8.0 0.00 0.00 0.00 49 1004.0
20260505013206 17 254 3.2 8.0 0.00 0.00 0.00 49 1004.0
20260505012706 17 0 0.0 6.4 0.00 0.00 0.00 49 1004.0
20260505012206 17 252 6.4 6.4 0.00 0.00 0.00 49 1003.9
20260505011808 17 253 4.8 11.3 0.00 0.00 0.00 49 1003.9
20260505011706 17 0 0.0 11.3 0.00 0.00 0.00 49 1003.8
20260505011206 17 0 0.0 6.4 0.00 0.00 0.00 48 1003.9
20260505010706 17 0 0.0 6.4 0.00 0.00 0.00 48 1003.8
20260505010307 17 254 4.8 6.4 0.00 0.00 0.00 49 1003.8
20260505010206 17 273 1.6 3.2 0.00 0.00 0.00 48 1003.7
20260505005706 17 246 4.8 4.8 0.00 0.00 0.00 48 1003.8
20260505005206 17 246 1.6 4.8 0.00 0.00 0.00 48 1003.7
20260505004808 18 0 0.0 4.8 0.00 0.00 0.00 47 1003.6
20260505004706 18 0 0.0 4.8 0.00 0.00 0.00 47 1003.6
20260505004206 18 0 0.0 1.6 0.00 0.00 0.00 48 1003.5
20260505003706 18 0 0.0 3.2 0.00 0.00 0.00 47 1003.5
20260505003308 18 246 1.6 3.2 0.00 0.00 0.00 47 1003.4
20260505003206 18 246 1.6 3.2 0.00 0.00 0.00 47 1003.4
20260505002706 18 0 0.0 6.4 0.00 0.00 0.00 46 1003.4
20260505002206 18 0 0.0 8.0 0.00 0.00 0.00 46 1003.3
20260505001808 18 251 1.6 4.8 0.00 0.00 0.00 46 1003.5
20260505001706 18 0 0.0 4.8 0.00 0.00 0.00 46 1003.4
20260505001206 18 251 4.8 4.8 0.00 0.00 0.00 46 1003.3
20260505000706 18 0 0.0 6.4 0.00 0.00 0.00 45 1003.2
20260505000307 18 273 3.2 6.4 0.00 0.00 0.00 45 1003.3
20260505000206 18 273 1.6 6.4 0.00 0.00 0.00 45 1003.3
20260504235706 19 256 3.2 4.8 0.00 0.00 0.00 45 1003.3
20260504235206 19 260 4.8 4.8 0.00 0.00 0.00 44 1003.3
20260504234808 19 246 1.6 6.4 0.00 0.00 0.00 44 1003.3
20260504234706 19 0 0.0 6.4 0.00 0.00 0.00 44 1003.2
20260504234206 19 0 0.0 8.0 0.00 0.00 0.00 44 1003.3
20260504233706 20 266 4.8 11.3 0.00 0.00 0.00 44 1003.2
20260504233307 20 269 6.4 9.7 0.00 0.00 0.00 43 1003.2
20260504233206 20 248 4.8 9.7 0.00 0.00 0.00 43 1003.2
20260504232706 20 265 6.4 6.4 0.00 0.00 0.00 43 1003.3
20260504232206 20 243 1.6 12.9 0.00 0.00 0.00 43 1003.3
20260504231807 20 235 11.3 14.5 0.00 0.00 0.00 43 1003.2
20260504231706 20 118 1.6 14.5 0.00 0.00 0.00 43 1003.2
20260504231206 20 263 4.8 19.3 0.00 0.00 0.00 42 1003.3
20260504230706 20 259 4.8 11.3 0.00 0.00 0.00 42 1003.2
20260504230308 20 267 4.8 17.7 0.00 0.00 0.00 42 1003.1
20260504230206 20 13 3.2 9.7 0.00 0.00 0.00 42 1003.2
20260504225706 20 286 1.6 8.0 0.00 0.00 0.00 42 1003.2
20260504225206 20 272 1.6 12.9 0.00 0.00 0.00 42 1003.2
20260504224807 20 236 11.3 14.5 0.00 0.00 0.00 42 1003.2
20260504224706 20 245 1.6 9.7 0.00 0.00 0.00 42 1003.3
20260504224206 20 260 4.8 17.7 0.00 0.00 0.00 41 1003.3
20260504223706 20 252 6.4 6.4 0.00 0.00 0.00 41 1003.2
20260504223308 20 274 6.4 14.5 0.00 0.00 0.00 40 1003.2
20260504223206 20 274 6.4 14.5 0.00 0.00 0.00 40 1003.3
20260504222706 20 300 4.8 14.5 0.00 0.00 0.00 40 1003.2
20260504222206 20 274 1.6 19.3 0.00 0.00 0.00 40 1003.3
20260504221807 20 263 11.3 20.9 0.00 0.00 0.00 39 1003.3
20260504221706 20 265 3.2 20.9 0.00 0.00 0.00 40 1003.4
20260504221206 20 256 8.0 16.1 0.00 0.00 0.00 40 1003.3
20260504220706 20 259 9.7 12.9 0.00 0.00 0.00 41 1003.4
20260504220307 20 269 6.4 11.3 0.00 0.00 0.00 40 1003.3
20260504220206 20 0 0.0 11.3 0.00 0.00 0.00 40 1003.3
20260504215706 20 257 6.4 14.5 0.00 0.00 0.00 39 1003.3
20260504215206 21 122 1.6 14.5 0.00 0.00 0.00 39 1003.4
20260504214807 21 261 1.6 14.5 0.00 0.00 0.00 40 1003.5
20260504214706 21 216 6.4 14.5 0.00 0.00 0.00 40 1003.4
20260504214206 21 30 1.6 12.9 0.00 0.00 0.00 39 1003.5
20260504213706 21 270 1.6 22.5 0.00 0.00 0.00 39 1003.4
20260504213307 21 355 3.2 17.7 0.00 0.00 0.00 40 1003.5
20260504213206 21 267 1.6 17.7 0.00 0.00 0.00 40 1003.5
20260504212706 21 278 16.1 16.1 0.00 0.00 0.00 39 1003.4
20260504212206 21 215 8.0 9.7 0.00 0.00 0.00 40 1003.5
20260504211807 21 0 0.0 14.5 0.00 0.00 0.00 39 1003.4
20260504211706 21 242 8.0 14.5 0.00 0.00 0.00 39 1003.5
20260504211206 21 232 6.4 14.5 0.00 0.00 0.00 40 1003.4
20260504210706 21 269 3.2 12.9 0.00 0.00 0.00 41 1003.5
20260504210307 21 0 0.0 17.7 0.00 0.00 0.00 40 1003.4
20260504210206 21 207 4.8 17.7 0.00 0.00 0.00 40 1003.4
20260504205706 21 254 12.9 19.3 0.00 0.00 0.00 41 1003.4
20260504205206 21 103 1.6 14.5 0.00 0.00 0.00 42 1003.5
20260504204808 21 265 3.2 12.9 0.00 0.00 0.00 40 1003.5
20260504204706 21 266 1.6 12.9 0.00 0.00 0.00 39 1003.5
20260504204206 21 269 9.7 12.9 0.00 0.00 0.00 40 1003.6
20260504203706 21 0 0.0 17.7 0.00 0.00 0.00 40 1003.6
20260504203309 21 252 11.3 19.3 0.00 0.00 0.00 39 1003.7
20260504203206 21 253 8.0 19.3 0.00 0.00 0.00 40 1003.6
20260504202706 21 271 9.7 14.5 0.00 0.00 0.00 41 1003.8
20260504202206 21 257 11.3 14.5 0.00 0.00 0.00 41 1003.7
20260504201807 21 284 4.8 17.7 0.00 0.00 0.00 41 1003.7
20260504201706 21 163 3.2 11.3 0.00 0.00 0.00 42 1003.8
20260504201206 21 243 8.0 17.7 0.00 0.00 0.00 40 1003.9
20260504200706 21 262 6.4 17.7 0.00 0.00 0.00 39 1004.0
20260504200307 21 260 3.2 24.1 0.00 0.00 0.00 41 1004.1
20260504200206 21 248 8.0 24.1 0.00 0.00 0.00 40 1004.0
20260504195706 21 239 4.8 17.7 0.00 0.00 0.00 39 1004.1
20260504195206 21 0 0.0 20.9 0.00 0.00 0.00 40 1004.0
20260504194807 21 255 11.3 16.1 0.00 0.00 0.00 38 1004.1
20260504194706 21 0 0.0 12.9 0.00 0.00 0.00 39 1004.1
20260504194206 22 248 17.7 19.3 0.00 0.00 0.00 39 1004.3
20260504193706 21 225 8.0 19.3 0.00 0.00 0.00 38 1004.2
20260504193308 21 242 8.0 19.3 0.00 0.00 0.00 39 1004.2
20260504193206 21 228 8.0 19.3 0.00 0.00 0.00 39 1004.2
20260504192706 21 267 19.3 24.1 0.00 0.00 0.00 39 1004.3
20260504192206 21 269 1.6 17.7 0.00 0.00 0.00 39 1004.3
20260504191807 21 268 6.4 19.3 0.00 0.00 0.00 41 1004.5
20260504191706 21 255 8.0 19.3 0.00 0.00 0.00 39 1004.5
20260504191206 21 247 1.6 8.0 0.00 0.00 0.00 40 1004.5
20260504190706 21 284 12.9 14.5 0.00 0.00 0.00 39 1004.5
20260504190307 21 338 4.8 22.5 0.00 0.00 0.00 39 1004.6
20260504190206 22 277 6.4 22.5 0.00 0.00 0.00 38 1004.6
20260504185706 21 275 6.4 16.1 0.00 0.00 0.00 41 1004.7
20260504185206 21 269 14.5 16.1 0.00 0.00 0.00 40 1004.7
20260504184807 21 241 1.6 16.1 0.00 0.00 0.00 37 1004.9
20260504184706 22 246 16.1 16.1 0.00 0.00 0.00 37 1004.9
20260504184206 22 268 6.4 12.9 0.00 0.00 0.00 40 1005.0
20260504183707 21 263 3.2 12.9 0.00 0.00 0.00 39 1005.0
20260504183309 21 262 11.3 16.1 0.00 0.00 0.00 38 1005.0
20260504183207 21 265 9.7 16.1 0.00 0.00 0.00 41 1004.9
20260504182707 21 275 12.9 17.7 0.00 0.00 0.00 39 1005.1
20260504182207 21 302 8.0 12.9 0.00 0.00 0.00 40 1005.0
20260504181809 21 250 1.6 11.3 0.00 0.00 0.00 40 1005.0
20260504181707 21 0 0.0 11.3 0.00 0.00 0.00 39 1005.0
20260504181207 21 265 1.6 12.9 0.00 0.00 0.00 43 1005.1
20260504180707 21 248 6.4 16.1 0.00 0.00 0.00 39 1005.3
20260504180308 21 271 4.8 17.7 0.00 0.00 0.00 40 1005.4
20260504180207 21 279 9.7 17.7 0.00 0.00 0.00 40 1005.4
20260504175707 21 246 4.8 12.9 0.00 0.00 0.00 38 1005.5
20260504175207 21 0 0.0 14.5 0.00 0.00 0.00 38 1005.5
20260504174808 21 243 14.5 14.5 0.00 0.00 0.00 38 1005.6
20260504174707 21 270 4.8 12.9 0.00 0.00 0.00 39 1005.5
20260504174207 21 267 4.8 16.1 0.00 0.00 0.00 41 1005.7
20260504173707 21 257 6.4 9.7 0.00 0.00 0.00 38 1005.8
20260504173308 21 282 4.8 17.7 0.00 0.00 0.00 38 1005.7
20260504173207 21 232 17.7 17.7 0.00 0.00 0.00 39 1005.8
20260504172707 21 0 0.0 12.9 0.00 0.00 0.00 38 1005.7
20260504172207 21 275 3.2 4.8 0.00 0.00 0.00 41 1005.9
20260504171808 21 237 3.2 16.1 0.00 0.00 0.00 39 1005.9
20260504171707 21 248 6.4 16.1 0.00 0.00 0.00 39 1005.8
20260504171207 21 263 11.3 16.1 0.00 0.00 0.00 37 1005.9
20260504170707 21 0 0.0 14.5 0.00 0.00 0.00 37 1005.9
20260504170308 21 265 6.4 11.3 0.00 0.00 0.00 43 1005.9
20260504170207 21 0 0.0 11.3 0.00 0.00 0.00 38 1006.0
20260504160308 20 0 0.0 4.8 0.00 0.00 0.00 40 1006.7
20260504160206 20 270 3.2 4.8 0.00 0.00 0.00 40 1006.7